Live Position
Loading 3D Globe...
About Orbcomm C5
Group: 3 satellites
Description loading...
Upcoming Passes
Passes for default location (London). Set your location on the main map for personalized predictions.
Altitude History
Loading altitude history...
No altitude history available
Two-Line Element Set
1 25479U 98053E 26106.76945926 .00000570 00000-0 22906-3 0 9999
2 25479 45.0068 266.9625 0003429 320.3168 39.7430 14.38978499441455
Epoch: Apr 16, 2026 •
Age: 18 hours
Current Status
Altitude 774.4 km
Velocity 7.47 km/s
Sub-Earth Point -42.22°S,
117.88°E
Launch Date Sep 23, 1998
Age 27.5 years
Type other
Technical Details
Classification Payload
Mass 42.00 kg
Dry Mass 42.00 kg
Total Mass 42.00 kg
Length 0.20 m
Diameter 1.00 m
Span 4.30 m
Shape Cyl + 2 Pan + Ant
Manufacturer OSCG
Bus Type Microstar
Phase Status Unknown Transfer Status
Owner/State ORBC/US
Most Searched
Loading...